Location: 22
(39.7117°N, 89.5929°W)
Time: 00:08:01
(UTC-05:00)

ACS3 Solar Sail - Visible Passes

Search period start: 19 April 2026 00:00
Search period end: 29 April 2026 00:00
Orbit: 872 x 974 km, 97.2° (Epoch: 18 April)

Date Brightness Start Highest point End Pass type
(mag) Time Alt. Az. Time Alt. Az. Time Alt. Az.
19 Apr 3.9 00:57:53 10° NE 01:00:03 18° ENE 01:00:03 18° ENE visible
19 Apr 2.5 02:39:13 10° N 02:43:36 44° NNW 02:43:36 44° NNW visible
20 Apr 3.6 01:06:52 10° NE 01:09:37 21° ENE 01:09:37 21° ENE visible
20 Apr 2.6 02:48:40 10° N 02:53:09 40° NW 02:53:09 40° NW visible
21 Apr 3.4 01:15:53 10° NNE 01:19:07 26° ENE 01:19:07 26° ENE visible
21 Apr 2.7 02:58:05 10° N 03:02:38 36° NW 03:02:38 36° NW visible
22 Apr 3.2 01:24:54 10° NNE 01:28:31 31° NE 01:28:31 31° NE visible
22 Apr 2.9 03:07:29 10° N 03:12:03 31° NW 03:12:03 31° NW visible
23 Apr 2.9 01:33:54 10° NNE 01:37:52 36° NE 01:37:52 36° NE visible
23 Apr 3.0 03:16:51 10° NNW 03:21:24 26° WNW 03:21:24 26° WNW visible
24 Apr 2.7 01:42:53 10° NNE 01:47:09 43° NE 01:47:09 43° NE visible
24 Apr 3.2 03:26:13 10° NNW 03:30:40 22° WNW 03:30:40 22° WNW visible
25 Apr 2.5 01:51:49 10° NNE 01:56:22 50° NE 01:56:22 50° NE visible
25 Apr 3.4 03:35:35 10° NNW 03:39:37 19° WNW 03:39:53 19° WNW visible
26 Apr 2.3 02:00:45 10° NNE 02:05:31 57° NNE 02:05:31 57° NNE visible
26 Apr 3.5 03:45:00 10° NNW 03:48:25 16° WNW 03:49:01 15° WNW visible
27 Apr 4.1 00:29:49 10° ENE 00:31:05 12° ENE 00:31:05 12° ENE visible
27 Apr 2.1 02:09:37 10° N 02:14:35 61° N 02:14:35 61° N visible
27 Apr 3.7 03:54:32 10° NW 03:57:08 13° WNW 03:58:05 13° WNW visible
28 Apr 3.9 00:37:54 10° NE 00:40:05 15° ENE 00:40:05 15° ENE visible
28 Apr 2.1 02:18:28 10° N 02:23:35 60° NNW 02:23:35 60° NNW visible
28 Apr 3.9 04:04:36 10° NW 04:05:45 11° WNW 04:06:55 10° WNW visible
